Voltar ao catálogo

STARLINK-30926

AtivoComunicaçõesVLEO
NORAD 58448·PAYLOAD·🇺🇸 United States

Lançado Nov 28, 2023 de Cape Canaveral Space Force Station

Loading…

Próximas Passagens (próximas 24 horas)

TLE

AtualizadoSource: CelesTrak SupGP

Época: Sep 14, 2026, 22:00 UTC

1 58448C 23183M   26257.91715278  .00065490  00000+0  23712-2 0  2575
2 58448  43.0041  52.5385 0001575 268.2472 274.3971 15.27557783    14

Acompanhe STARLINK-30926 em tempo real com AllMySat

Download on the App Store